Regional Weather Roundup
Issued by NWS Newport/Morehead, NC

Current Version | Previous Version | Text Only | Print | Product List | Glossary Off
Versions: 1 2 3 4 5 6 7 8 9 10 11 12 13 14 15 16 17 18 19 20 21 22 23 24 25 26 27 28 29 30 31 32 33 34 35 36 37 38 39 40 41 42 43 44 45 46 47 48 49 50
000 ASUS42 KMHX 290313 RWRMHX WEATHER ROUNDUP FOR EASTERN NORTH CAROLINA NATIONAL WEATHER SERVICE NEWPORT/MOREHEAD CITY NC 1100 PM EDT THU APR 28 2016 NOTE: "FAIR" INDICATES FEW OR NO CLOUDS BELOW 12,000 FEET WITH NO SIGNIFICANT WEATHER AND/OR OBSTRUCTIONS TO VISIBILITY NCZ015>017-031-032-045>047-102-103-290400- NORTH COAST CITY SKY/WX TMP DP RH WIND PRES REMARKS EDENTON RAIN 67 67 100 SW9 29.93R ELIZABETH CITY FOG 58 58 100 N10 29.92R VSB 3/4 KITTY HAWK LGT RAIN 58 58 99 N8 29.88F VSB 3/4 MANTEO NOT AVBL $$ NCZ045>047-081-094-103-104-290400- CENTRAL COAST CITY SKY/WX TMP DP RH WIND PRES REMARKS FRISCO CLOUDY 70 68 93 SW13 29.90F SWANQUARTER NOT AVBL $$ NCZ095-097-098-100-101-290400- SOUTHERN COAST CITY SKY/WX TMP DP RH WIND PRES REMARKS BEAUFORT CLOUDY 69 67 93 SW8 29.92R CEDAR ISLAND NOT AVBL JACKSONVILLE MOCLDY 71 64 78 SW8 29.90R PINEY ISLAND NOT AVBL WILMINGTON CLEAR 71 63 75 SW10 29.91R $$ NCZ011>013-027>030-043-044-078>080-089-090>093-098-290400- COASTAL PLAIN CITY SKY/WX TMP DP RH WIND PRES REMARKS AHOSKIE CLOUDY 60 59 96 NE5 29.92R FOG CLINTON LGT RAIN 73 68 84 CALM 29.91R ELIZABETHTOWN NOT AVBL GOLDSBORO NOT AVBL GREENVILLE LGT RAIN 64 64 100 SW5 29.95R HAVELOCK MOCLDY 71 66 84 SW12 29.92R KENANSVILLE CLOUDY 72 64 75 CALM 29.91R KINSTON HVY RAIN 69 65 89 NE8 29.91R NEW BERN CLOUDY 72 65 78 SW7 29.92R RICHLANDS CLOUDY 72 64 76 S9 29.91R ROCKY MOUNT CLOUDY 65 64 97 CALM 29.90R WASHINGTON RAIN 69 67 93 N10 29.92R WHITEVILLE CLEAR 70 65 85 S3 29.90S $$ AMZ130-135-150-152-154-156-158-170-250-252-270-ANZ085-086-088-633-658-670-290400- MARINE OBSERVATIONS STATION/POSITION TIME TEMP WIND PRES WAVE SWELL AIR SEA DIR/SP/G HT/PER HT/PER (UTC) (F) (DEG/KT/KT) (MB) (FT/S) (FT/S) CHESAPEAKE LIGHT 0200 54 60/ 15/ 16 1013.7 64 E VA BEACH NOT AVBL DUCK 0200 67 1012.3 2 E DUCK 0241 58 N/A 3/11 OREGON INLET 0200 70 1012.1 13E OREGON INLT 0200 60 N/A 3/ 6 3/ 6 HATTERAS CG 0200 70 1012.7 DIAMOND BUOY NOT AVBL CAPE LOOKOUT 0300 69 210/ 8/ 10 1012.8 BEAUFORT LAB 0200 68 1011.9 30 SE NEW RVR IN NOT AVBL 27 SE WRIGHTSVLE 0208 71 69 210/ 10/ 14 1016.1 5 SE WRIGHTSVLE 0208 69 67 220/ 12/ 16 1013.3 225 S CAPE HAT NOT AVBL 41 SE CHARLESTON NOT AVBL $$

USA.gov is the U.S. government's official web portal to all federal, state and local government web resources and services.